Lexington Weather

Lexington, Massachusetts, USA

56°F
10/22/2020 8:06pm 
  • Lexington Conditions: Mostly cloudy
  • Temperature: 55.8°F / 13.2°C 
  • Dew Point: 54.3°F 
  • Relative Humidity: 95
  • Wind: Calm, 10-min avg: Calm, gust: 2 mph
  • Barometer: 30.22 in Steady
  • Visibility: 7 miles
  • Rain Today: 0.00 in
  •   
Southeast Middlesex County - Special Weather Statement
 - SEE ALL NEARBY ALERTS -

Regional Weather Roundup
for Boston / Norton, MA

        
000
ASUS41 KBOX 161404
RWRBOX

REGIONAL WEATHER ROUNDUP
NATIONAL WEATHER SERVICE BOSTON/NORTON MA
1000 AM EDT FRI OCT 16 2020

NOTE:  "FAIR" INDICATES FEW OR NO CLOUDS BELOW 12,000 FEET WITH NO 
SIGNIFICANT WEATHER AND/OR OBSTRUCTIONS TO VISIBILITY.

MAZALL-161500-
EASTERN MASSACHUSETTS
  
CITY           SKY/WX    TMP DP  RH WIND       PRES   REMARKS
BOSTON         CLOUDY    65  63  93 S8        30.04F                  
BEVERLY        CLOUDY    66  63  90 S6        30.03F                  
LAWRENCE       CLOUDY    68  63  84 VRB5      30.04F                  
BEDFORD        PTSUNNY   69  65  86 S12       30.01F                  
BLUE HILL        N/A     64  63  96 S14G21    30.04S                  
NORWOOD        CLOUDY    69  63  81 S8        30.04S                  
MARSHFIELD     PTSUNNY   70  66  88 S10G18    30.04F                  
PLYMOUTH       CLOUDY    67  62  84 S8        30.06F                  
TAUNTON        CLOUDY    70  64  81 S8        30.05S                  
NEW BEDFORD    CLOUDY    69  64  84 S12       30.05F                  
$$

MAZALL-161500-
CAPE COD AND THE ISLANDS
  
CITY           SKY/WX    TMP DP  RH WIND       PRES   REMARKS
FALMOUTH       PTSUNNY   66  63  88 S15G23    30.08S                  
HYANNIS        PTSUNNY   69  61  75 S14G25    30.07S                  
CHATHAM        MOSUNNY   67  60  78 S10G20    30.11S                  
PROVINCETOWN   PTSUNNY   68  61  78 S13G21    30.08S                  
NANTUCKET      MOSUNNY   64  61  90 S16       30.10F                  
MARTHAS VNYRD  CLOUDY    67  62  84 S16G22    30.08S                  
$$
 
MAZALL-161500-
CENTRAL AND WESTERN MASSACHUSETTS
  
CITY           SKY/WX    TMP DP  RH WIND       PRES   REMARKS
WORCESTER      CLOUDY    64  61  90 S9        30.04S                  
FITCHBURG      CLOUDY    67  64  90 SE8       30.02F                  
ORANGE         CLOUDY    59  54  83 NW9       30.06R                  
SPRINGFIELD    CLOUDY    59  55  85 NW8       30.06R                  
WESTFIELD      CLOUDY    59  53  80 N10       30.06R                  
NORTH ADAMS    LGT RAIN  52  49  89 W8        30.12R                  
PITTSFIELD     CLOUDY    50  47  89 W7        30.10R                  
$$
 
RIZALL-161500-
RHODE ISLAND
  
CITY           SKY/WX    TMP DP  RH WIND       PRES   REMARKS
PROVIDENCE     CLOUDY    68  65  90 SW10      30.05S                  
NEWPORT        CLOUDY    65  64  97 S13       30.06S FOG              
BLOCK ISLAND   CLOUDY    66  63  90 S13       30.06S                  
SMITHFIELD     CLOUDY    66  66 100 VRB3        N/A                   
WESTERLY       CLOUDY    67  62  84 S8        30.05S                  
$$
 
CTZALL-161500-
CONNECTICUT
  
CITY           SKY/WX    TMP DP  RH WIND       PRES   REMARKS
BRADLEY INTL   CLOUDY    59  53  80 N3        30.06R                  
HARTFORD       CLOUDY    61  53  75 N7        30.05R                  
BRIDGEPORT     CLOUDY    63  55  75 NW12      30.04R                  
DANBURY        CLOUDY    57  52  83 N8        30.09R                  
GROTON         CLOUDY    67  64  90 S8        30.03S                  
NEW HAVEN      CLOUDY    67  63  87 NW13G18   30.03S                  
CHESTER        NOT AVBL                                               
MERIDEN        CLOUDY    60  53  77 NW8       30.06R                  
WILLIMANTIC    CLOUDY    67  64  90 S6        30.03S                  
OXFORD         CLOUDY    57  54  89 NW5       30.08R                  
$$

MEZ002-015-021-024-NHZ003-005-008-011-012-014-VTZ005-008-161500-
NORTHERN NEW ENGLAND
  
CITY           SKY/WX    TMP DP  RH WIND       PRES   REMARKS
PORTLAND ME    LGT RAIN  62  60  93 S10       30.04S                  
BANGOR ME      CLOUDY    63  58  83 S14       30.07S                  
CONCORD NH     LGT RAIN  59  56  89 CALM      30.02F                  
MANCHESTER NH  CLOUDY    66  61  84 VRB6      30.00F                  
NASHUA NH      CLOUDY    66  66 100 CALM      30.02F                  
PORTSMOUTH NH  PTSUNNY   66  63  90 S8        30.01                   
JAFFREY NH     CLOUDY    57  53  86 VRB3      30.05R                  
KEENE NH       CLOUDY    57  55  93 NW6       30.08R                  
BURLINGTON VT  LGT RAIN  51  48  89 NE6       30.08R FOG              
MT. WASHINGTON FOG       41  41 100 SW25G33     N/A  VSB 0   WCI  31  
$$

NYZ052-076-161500-
EASTERN NEW YORK
  
CITY           SKY/WX    TMP DP  RH WIND       PRES   REMARKS
ALBANY         CLOUDY    50  49  96 CALM      30.13F                  
NEW YORK CITY  LGT RAIN  63  50  62 NW16      30.06R                  
$$
 
ANZALL-161500-
MARINE OBSERVATIONS
  
STATION/POSITION TIME  TEMP    WIND        PRES    VSBY  WAVE
                       AIR SEA DIR/SP/G                  HT/PER
                 (UTC) (F)     (DEG/KT/KT) (MB)    (MI)  (FT/S)
BOSTON BUOY      1350   61 58  150/ 14/ 14 1016.1F         3/ 8
BUZZARDS BAY     1300          170/ 24/ 28 1018.2R
NANTUCKET SOUND  1350      62  170/ 17/ 23   N/A           2/ 4
MASS BAY-STELLWA NOT AVBL
ISLE OF SHOALS   1300   60     170/ 22/ 23 1016.7R
S OF BLOCK IS    1326      64                N/A           4/ 6
$$

......................KEY.........................
  SKY/WX - SKY CONDITION/PRESENT WEATHER
  TMP    - TEMPERATURE IN FAHRENHEIT
  DWPT   - DEWPOINT IN FAHRENHEIT
  RH     - RELATIVE HUMIDITY IN PERCENT
  WIND   - DIRECTION AND SPEED IN MPH
  PRES   - MEAN SEA LEVEL PRESSURE IN INCHES OF HG
  WCI    - WIND CHILL INDEX
  VSB    - VISIBILITY IN MILES
  HX     - HEAT INDEX
  TC     - TEMPERATURE IN CELSIUS
  VRB    - VARIABLE WIND DIRECTION
  N/A    - NOT AVAILABLE
  
      

Other recent Regional Weather Roundups

Thu Oct 22, 7:05pm

Thu Oct 22, 6:04pm

Thu Oct 22, 5:04pm

Thu Oct 22, 4:05pm

Thu Oct 22, 3:04pm

Thu Oct 22, 2:05pm

Thu Oct 22, 1:04pm

Thu Oct 22, 12:04pm

Thu Oct 22, 11:04am

Thu Oct 22, 10:05am

Thu Oct 22, 9:04am

Thu Oct 22, 8:05am

Thu Oct 22, 7:04am

Thu Oct 22, 6:04am

Thu Oct 22, 5:04am

Thu Oct 22, 4:04am

Thu Oct 22, 3:04am

Thu Oct 22, 2:04am

Thu Oct 22, 1:04am

Thu Oct 22, 12:04am

Wed Oct 21, 11:05pm

Wed Oct 21, 10:04pm

Wed Oct 21, 9:04pm

Wed Oct 21, 8:04pm

Wed Oct 21, 7:04pm

Wed Oct 21, 6:04pm

Wed Oct 21, 5:05pm

Wed Oct 21, 4:04pm

Wed Oct 21, 3:04pm

Wed Oct 21, 2:05pm

Wed Oct 21, 1:04pm

Wed Oct 21, 12:04pm

Wed Oct 21, 11:04am

Wed Oct 21, 10:04am

Wed Oct 21, 9:04am

Wed Oct 21, 8:04am

Wed Oct 21, 7:04am

Wed Oct 21, 6:04am

Wed Oct 21, 5:04am

Wed Oct 21, 4:04am

Wed Oct 21, 3:04am

Wed Oct 21, 2:04am

Wed Oct 21, 1:04am

Wed Oct 21, 12:04am

Tue Oct 20, 11:05pm

Tue Oct 20, 10:04pm

Tue Oct 20, 9:04pm

Tue Oct 20, 8:05pm

Tue Oct 20, 7:04pm

Tue Oct 20, 6:04pm

Tue Oct 20, 5:05pm

Tue Oct 20, 4:04pm

Tue Oct 20, 3:05pm

Tue Oct 20, 2:07pm

Tue Oct 20, 1:04pm

Tue Oct 20, 12:04pm

Tue Oct 20, 11:04am

Tue Oct 20, 10:05am

Tue Oct 20, 9:04am

Tue Oct 20, 8:04am

Tue Oct 20, 7:04am

Tue Oct 20, 6:04am

Tue Oct 20, 5:04am

Tue Oct 20, 4:04am

Tue Oct 20, 3:04am

Tue Oct 20, 2:04am

Tue Oct 20, 1:04am

Tue Oct 20, 12:04am

Mon Oct 19, 11:04pm

Mon Oct 19, 10:04pm

Mon Oct 19, 9:04pm

Mon Oct 19, 8:04pm

Mon Oct 19, 7:04pm

Mon Oct 19, 6:04pm

Mon Oct 19, 5:04pm

Mon Oct 19, 4:04pm

Mon Oct 19, 3:04pm

Mon Oct 19, 2:04pm

Mon Oct 19, 1:05pm

Mon Oct 19, 12:04pm

Mon Oct 19, 11:04am

Mon Oct 19, 10:04am

Mon Oct 19, 9:04am

Mon Oct 19, 8:04am

Mon Oct 19, 7:04am

Mon Oct 19, 6:04am

Mon Oct 19, 5:04am

Mon Oct 19, 4:04am

Mon Oct 19, 3:04am

Mon Oct 19, 2:04am

Mon Oct 19, 1:04am

Mon Oct 19, 12:05am

Sun Oct 18, 11:04pm

Sun Oct 18, 10:04pm

Sun Oct 18, 9:04pm

Sun Oct 18, 8:04pm

Sun Oct 18, 7:05pm

Sun Oct 18, 6:04pm

Sun Oct 18, 5:05pm

Sun Oct 18, 4:05pm

Sun Oct 18, 3:04pm

Sun Oct 18, 2:05pm

Sun Oct 18, 1:04pm

Sun Oct 18, 12:04pm

Sun Oct 18, 11:04am

Sun Oct 18, 10:04am

Sun Oct 18, 9:04am

Sun Oct 18, 8:04am

Sun Oct 18, 7:04am

Sun Oct 18, 6:04am

Sun Oct 18, 5:04am

Sun Oct 18, 4:04am

Sun Oct 18, 3:04am

Sun Oct 18, 2:04am

Sun Oct 18, 1:04am

Sun Oct 18, 12:04am

Sat Oct 17, 11:05pm

Sat Oct 17, 10:04pm

Sat Oct 17, 9:04pm

Sat Oct 17, 8:04pm

Sat Oct 17, 7:04pm

Sat Oct 17, 6:04pm

Sat Oct 17, 5:05pm

Sat Oct 17, 4:04pm

Sat Oct 17, 3:04pm

Sat Oct 17, 2:05pm

Sat Oct 17, 1:05pm

Sat Oct 17, 12:04pm

Sat Oct 17, 11:05am

Sat Oct 17, 10:04am

Sat Oct 17, 9:04am

Sat Oct 17, 8:04am

Sat Oct 17, 7:04am

Sat Oct 17, 6:04am

Sat Oct 17, 5:04am

Sat Oct 17, 4:04am

Sat Oct 17, 3:04am

Sat Oct 17, 2:04am

Sat Oct 17, 1:05am

Sat Oct 17, 12:04am

Fri Oct 16, 11:05pm

Fri Oct 16, 10:04pm

Fri Oct 16, 9:05pm

Fri Oct 16, 8:04pm

Fri Oct 16, 7:05pm

Fri Oct 16, 6:04pm

Fri Oct 16, 5:04pm

Fri Oct 16, 4:05pm

Fri Oct 16, 3:04pm

Fri Oct 16, 2:04pm

Fri Oct 16, 1:04pm

Fri Oct 16, 12:04pm

Fri Oct 16, 11:05am

Fri Oct 16, 9:04am

Fri Oct 16, 8:04am

Fri Oct 16, 7:04am

Fri Oct 16, 6:04am

Fri Oct 16, 5:04am

Fri Oct 16, 4:04am

Fri Oct 16, 3:04am

Fri Oct 16, 2:04am

Fri Oct 16, 1:04am

Fri Oct 16, 12:04am

Thu Oct 15, 11:04pm

Thu Oct 15, 10:04pm

Thu Oct 15, 9:05pm

Thu Oct 15, 8:04pm

Meta data:

ID: bd2f0cdf-bc63-4111-a5df-dda4c1172710
Link: https://api.weather.gov/products/bd2f0cdf-bc63-4111-a5df-dda4c1172710